Torna al catalogo

LEONAV-1

AttivoRadioamatoreSSO
NORAD 69937·PAYLOAD·🇫🇷 France

Lanciato Jul 7, 2026 da Vandenberg Space Force Base

Loading…

Prossimi Passaggi (prossime 24 ore)

TLE

AggiornatoSource: Space-Track

Epoca: Sep 14, 2026, 04:20 UTC

1 69937U 26156BW  26257.18118114  .00001816  00000-0  18031-3 0  9993
2 69937  97.7435 156.5741 0009314 289.3760  70.6453 14.92939553 10277

Traccia LEONAV-1 in tempo reale con AllMySat

Download on the App Store